This demonstration page uses our WeatherBlox Daily Observations layout. Learn more.

Left ArrowRight Arrow

41.86663, -103.66717

Hourly Observations for April 7, 2016

Temp ( °F °C ) Dew Point ( °F °C ) Humidity (%) Winds ( mph kmh ) Pressure ( in mb ) Visibility ( mi km ) Precip ( " mm )
12:53 am 00:53 Clear 46 7.8 33 0.6 61 61 NE 6 9 30.06 1018 10 16 N/A
1:53 am 01:53 Mostly Clear 43 6.1 34 1.1 71 71 N 5 7 30.09 1019 10 16 N/A
2:53 am 02:53 Partly Cloudy 42 5.6 33 0.6 71 71 NNW 5 7 30.09 1019 10 16 N/A
3:53 am 03:53 Mostly Cloudy 42 5.6 33 0.6 71 71 NW 3 6 30.09 1019 10 16 N/A
4:53 am 04:53 Cloudy 42 5.6 34 1.1 73 73 NW 3 6 30.09 1019 10 16 N/A
5:53 am 05:53 Cloudy 43 6.1 34 1.1 71 71 NNW 9 15 30.12 1020 10 16 N/A
6:53 am 06:53 Cloudy 42 5.6 35 1.7 76 76 W 6 9 30.14 1021 10 16 N/A
7:53 am 07:53 Cloudy 44 6.7 35 1.7 71 71 NW 5 7 30.16 1021 10 16 N/A
8:53 am 08:53 Cloudy 50 10 35 1.7 57 57 NNW 15 24 30.18 1022 10 16 N/A
9:53 am 09:53 Mostly Sunny 53 11.7 33 0.6 47 47 N 14 22 30.20 1023 10 16 N/A
10:53 am 10:53 Partly Cloudy 55 12.8 33 0.6 44 44 NNW 16 26 30.20 1023 10 16 N/A
11:53 am 11:53 Mostly Cloudy 56 13.3 31 -0.6 39 39 NNW 16 26 30.18 1022 10 16 N/A
12:53 pm 12:53 Mostly Cloudy 60 15.6 31 -0.6 33 33 N 22 35 30.16 1021 10 16 N/A
1:53 pm 13:53 Partly Cloudy 61 16.1 28 -2.2 29 29 NNW 24 39 30.15 1021 10 16 N/A
2:53 pm 14:53 Mostly Cloudy 60 15.6 27 -2.8 28 28 N 22 35 30.14 1021 10 16 N/A
3:53 pm 15:53 Mostly Sunny 62 16.7 27 -2.8 26 26 NNW 24 39 30.12 1020 10 16 N/A
4:53 pm 16:53 Mostly Sunny 60 15.6 27 -2.8 28 28 N 22 35 30.12 1020 10 16 N/A
5:53 pm 17:53 Sunny 60 15.6 25 -3.9 26 26 N 22 35 30.11 1020 10 16 N/A
6:53 pm 18:53 Sunny 56 13.3 24 -4.4 29 29 N 12 19 30.14 1021 10 16 N/A
7:53 pm 19:53 Clear 50 10 23 -5 35 35 N 12 19 30.16 1021 10 16 N/A
8:53 pm 20:53 Clear 46 7.8 23 -5 40 40 N N/A 30.19 1022 10 16 N/A
9:53 pm 21:53 Clear 43 6.1 23 -5 45 45 N N/A 30.21 1023 10 16 N/A
10:53 pm 22:53 Clear 37 2.8 22 -5.6 54 54 ENE 7 11 30.22 1024 10 16 N/A
11:53 pm 23:53 Clear 35 1.7 23 -5 61 61 NNE 8 13 30.24 1024 10 16 N/A

Powered by AerisWeather